Weather History for Plattsburgh, NY

Change the Weather History Date:

Tuesday, October 15, 2013

  Actual Average Record
Temperature  
Mean Temperature 50 °F 48 °F  
Max Temperature 60 °F 57 °F 79 °F (1954)
Min Temperature 39 °F 38 °F 27 °F (1950)
Degree Days  
Heating Degree Days 15 17  
Month to date heating degree days 160 223  
Since 1 July heating degree days 441 458  
Cooling Degree Days 0 0  
Month to date cooling degree days 2 0  
Year to date cooling degree days 425 345  
Moisture  
Dew Point 46 °F    
Average Humidity 88    
Maximum Humidity 100    
Minimum Humidity 75    
Precipitation  
Precipitation 0.00 in - 1.67 in (2010)
Month to date precipitation 1.19  
Year to date precipitation 28.02  
Sea Level Pressure  
Sea Level Pressure 30.23 in    
Wind  
Wind Speed 2 mph (SSW)    
Max Wind Speed 9 mph    
Max Gust Speed 21 mph    
Visibility 4 miles    
Events Fog    
T = Trace of Precipitation, MM = Missing Value Source: NWS Daily Summary

Daily Weather History Graph

Daily Weather History Graph

Search for Another Location

Airport:

Trip Planner

Search our weather history database for the weather conditions in past years. The results will help you decide how hot, cold, wet, or windy it might be!

Date:

Astronomy

Oct. 15, 2013 Rise Set
Actual Time 7:09 AM EDT 6:08 PM EDT
Civil Twilight 6:40 AM EDT 6:38 PM EDT
Nautical Twilight 6:06 AM EDT 7:12 PM EDT
Astronomical Twilight 5:32 AM EDT 7:45 PM EDT
Moon 4:19 PM EDT (10/15) 3:21 AM EDT (10/15)
Length of Visible Light 11h 58m
Length of Day
10h 59m
Waxing Gibbous, 87% of the Moon is Illuminated
Oct 15
Waxing Gibbous
Oct 18
Full
Oct 26
Last Quarter
Nov 3
New
Nov 10
First Quarter

Hourly Weather History & Observations

Time (EDT) Temp. Windchill Dew Point Humidity Pressure Visibility Wind Dir Wind Speed Gust Speed Precip Events Conditions
12:08 AM 44.6 °F - 44.6 °F 100% 30.27 in 0.5 mi Calm Calm - N/A Fog Fog
12:37 AM 44.6 °F 43.1 °F 44.6 °F 100% 30.28 in 1.0 mi WSW 3.5 mph - N/A   Mist
12:41 AM 46.4 °F - 44.6 °F 93% 30.28 in 2.5 mi Calm Calm - N/A   Scattered Clouds
12:46 AM 44.6 °F - 44.6 °F 100% 30.28 in 1.0 mi Calm Calm - N/A   Mist
12:48 AM 42.8 °F - 42.8 °F 100% 30.28 in 0.5 mi Calm Calm - N/A Fog Fog
12:53 AM 44.1 °F - 44.1 °F 100% 30.28 in 0.2 mi Calm Calm - N/A Fog Fog
1:32 AM 42.8 °F - 42.8 °F 100% 30.27 in 0.8 mi Calm Calm - N/A   Mist
1:42 AM 42.8 °F - 42.8 °F 100% 30.27 in 0.5 mi Calm Calm - N/A Fog Fog
1:53 AM 42.1 °F - 42.1 °F 100% 30.27 in 0.5 mi Calm Calm - N/A Fog Fog
1:59 AM 42.8 °F - 42.8 °F 100% 30.26 in 0.8 mi Calm Calm - N/A   Mist
2:21 AM 42.8 °F - 42.8 °F 100% 30.26 in 1.2 mi Calm Calm - N/A   Scattered Clouds
2:27 AM 44.6 °F - 42.8 °F 93% 30.26 in 4.0 mi Calm Calm - N/A   Partly Cloudy
2:36 AM 42.8 °F - 42.8 °F 100% 30.26 in 1.8 mi Calm Calm - N/A   Partly Cloudy
2:39 AM 41.0 °F - 41.0 °F 100% 30.25 in 0.8 mi Calm Calm - N/A   Mist
2:48 AM 42.8 °F - 42.8 °F 100% 30.26 in 0.5 mi Calm Calm - N/A Fog Fog
2:53 AM 41.0 °F - 41.0 °F 100% 30.26 in 0.8 mi Calm Calm - N/A   Mist
3:03 AM 42.8 °F - 41.0 °F 93% 30.26 in 1.2 mi Calm Calm - N/A   Partly Cloudy
3:07 AM 42.8 °F - 42.8 °F 100% 30.26 in 3.0 mi Calm Calm - N/A   Partly Cloudy
3:20 AM 42.8 °F - 42.8 °F 100% 30.26 in 1.8 mi Calm Calm - N/A   Partly Cloudy
3:41 AM 39.2 °F - 39.2 °F 100% 30.26 in 0.8 mi Calm Calm - N/A   Clear
3:49 AM 42.8 °F - 42.8 °F 100% 30.26 in 2.0 mi Calm Calm - N/A   Clear
3:53 AM 42.1 °F - 42.1 °F 100% 30.27 in 4.0 mi Calm Calm - N/A   Clear
3:57 AM 42.8 °F - 42.8 °F 100% 30.26 in 1.8 mi Calm Calm - N/A   Clear
4:18 AM 42.8 °F - 39.2 °F 87% 30.26 in 0.8 mi Calm Calm - N/A   Mist
4:20 AM 41.0 °F - 39.2 °F 93% 30.26 in 0.5 mi Calm Calm - N/A Fog Fog
4:29 AM 42.8 °F - 42.8 °F 100% 30.26 in 0.8 mi Calm Calm - N/A   Mist
4:33 AM 41.0 °F - 41.0 °F 100% 30.27 in 1.2 mi Calm Calm - N/A   Partly Cloudy
4:42 AM 41.0 °F - 41.0 °F 100% 30.27 in 0.8 mi Calm Calm - N/A   Mist
4:53 AM 39.9 °F - 39.0 °F 97% 30.28 in 1.0 mi Calm Calm - N/A   Clear
5:13 AM 41.0 °F - 39.2 °F 93% 30.27 in 2.5 mi Calm Calm - N/A   Mostly Cloudy
5:20 AM 42.8 °F - 42.8 °F 100% 30.27 in 10.0 mi Calm Calm - N/A   Mostly Cloudy
5:43 AM 42.8 °F - 42.8 °F 100% 30.27 in 8.0 mi Calm Calm - N/A   Overcast
5:53 AM 39.9 °F - 39.9 °F 100% 30.28 in 5.0 mi Calm Calm - N/A   Scattered Clouds
6:12 AM 41.0 °F - 41.0 °F 100% 30.27 in 1.8 mi Calm Calm - N/A   Mostly Cloudy
6:30 AM 42.8 °F 40.1 °F 42.8 °F 100% 30.27 in 2.5 mi West 4.6 mph - N/A   Scattered Clouds
6:37 AM 44.6 °F 43.1 °F 44.6 °F 100% 30.27 in 9.0 mi WNW 3.5 mph - N/A   Partly Cloudy
6:53 AM 43.0 °F - 43.0 °F 100% 30.28 in 7.0 mi Calm Calm - N/A   Mostly Cloudy
7:13 AM 42.8 °F 41.1 °F 42.8 °F 100% 30.27 in 5.0 mi West 3.5 mph - N/A   Scattered Clouds
7:41 AM 44.6 °F 41.4 °F 44.6 °F 100% 30.28 in 2.0 mi West 5.8 mph - N/A   Scattered Clouds
7:43 AM 44.6 °F 42.2 °F 44.6 °F 100% 30.28 in 1.0 mi WSW 4.6 mph - N/A   Mist
7:46 AM 44.6 °F 42.2 °F 44.6 °F 100% 30.28 in 0.8 mi West 4.6 mph - N/A   Mostly Cloudy
7:50 AM 44.6 °F 43.1 °F 44.6 °F 100% 30.28 in 0.2 mi West 3.5 mph - N/A Fog Fog
7:53 AM 46.0 °F - 46.0 °F 100% 30.29 in 0.2 mi Calm Calm - N/A Fog Fog
8:30 AM 46.4 °F - 46.4 °F 100% 30.28 in 1.0 mi Calm Calm - N/A   Overcast
8:33 AM 46.4 °F - 46.4 °F 100% 30.28 in 2.5 mi Calm Calm - N/A   Overcast
8:40 AM 46.4 °F - 46.4 °F 100% 30.28 in 6.0 mi Calm Calm - N/A   Overcast
8:53 AM 48.9 °F - 48.0 °F 97% 30.29 in 10.0 mi Calm Calm - N/A   Mostly Cloudy
9:01 AM 48.2 °F - 48.2 °F 100% 30.28 in 10.0 mi Calm Calm - N/A   Scattered Clouds
9:12 AM 50.0 °F - 50.0 °F 100% 30.28 in 10.0 mi Calm Calm - N/A   Mostly Cloudy
9:53 AM 52.0 °F - 51.1 °F 97% 30.28 in 10.0 mi SW 3.5 mph - N/A   Overcast
10:53 AM 55.9 °F - 52.0 °F 87% 30.27 in 10.0 mi Calm Calm - N/A   Scattered Clouds
10:58 AM 55.4 °F - 51.8 °F 88% 30.26 in 10.0 mi Calm Calm - N/A   Mostly Cloudy
11:53 AM 55.9 °F - 52.0 °F 87% 30.25 in 10.0 mi ESE 3.5 mph - N/A   Overcast
12:44 PM 57.2 °F - 51.8 °F 82% 30.22 in 10.0 mi Calm Calm - N/A   Scattered Clouds
12:53 PM 57.9 °F - 53.1 °F 84% 30.22 in 10.0 mi SE 3.5 mph - N/A   Scattered Clouds
1:53 PM 57.9 °F - 53.1 °F 84% 30.20 in 10.0 mi East 4.6 mph - N/A   Overcast
2:53 PM 59.0 °F - 52.0 °F 78% 30.16 in 10.0 mi ESE 5.8 mph - N/A   Partly Cloudy
3:53 PM 57.9 °F - 52.0 °F 81% 30.16 in 10.0 mi SSE 5.8 mph - N/A   Overcast
4:53 PM 59.0 °F - 53.1 °F 81% 30.14 in 10.0 mi SSE 5.8 mph - N/A   Overcast
5:53 PM 57.9 °F - 55.0 °F 90% 30.12 in 10.0 mi SSE 5.8 mph - N/A   Overcast
6:53 PM 55.0 °F - 54.0 °F 96% 30.12 in 10.0 mi Calm Calm - N/A   Mostly Cloudy
7:49 PM 51.8 °F - 51.8 °F 100% 30.10 in 1.8 mi Calm Calm - N/A   Scattered Clouds
7:53 PM 52.0 °F - 52.0 °F 100% 30.10 in 1.0 mi Calm Calm - N/A   Partly Cloudy
8:00 PM 51.8 °F - 51.8 °F 100% 30.10 in 0.8 mi Calm Calm - N/A   Partly Cloudy
8:06 PM 53.6 °F - 51.8 °F 94% 30.10 in 2.5 mi Calm Calm - N/A   Clear
8:13 PM 51.8 °F - 51.8 °F 100% 30.10 in 5.0 mi Calm Calm - N/A   Clear
8:36 PM 51.8 °F - 50.0 °F 94% 30.10 in 1.8 mi Calm Calm - N/A   Clear
8:53 PM 51.1 °F - 50.0 °F 96% 30.11 in 0.8 mi Calm Calm - N/A   Clear
9:02 PM 50.0 °F - 50.0 °F 100% 30.11 in 2.5 mi Calm Calm - N/A   Scattered Clouds
9:09 PM 50.0 °F - 50.0 °F 100% 30.10 in 4.0 mi Calm Calm - N/A   Scattered Clouds
9:28 PM 50.0 °F - 50.0 °F 100% 30.09 in 1.5 mi Calm Calm - N/A   Scattered Clouds
9:40 PM 50.0 °F - 50.0 °F 100% 30.09 in 3.0 mi Calm Calm - N/A   Scattered Clouds
9:53 PM 51.1 °F - 50.0 °F 96% 30.10 in 5.0 mi Calm Calm - N/A   Mostly Cloudy
10:53 PM 51.1 °F - 50.0 °F 96% 30.08 in 6.0 mi Calm Calm - N/A   Mostly Cloudy
11:53 PM 57.0 °F - 55.0 °F 93% 30.06 in 10.0 mi South 8.1 mph - N/A   Mostly Cloudy